When you browse on this site, cookies collect data to enhance your experience and personalize the content and advertising you see.
Visit our Privacy Policy to learn more. By continuing to use the site, you agree to this use of cookies and data.
  • In Sweden
  • List of Countries
  • For 7 days
  • Water Temperature
  • Weather Map
  • Weather Widgets
  • user-avatar
    Login

    Hourly Weather Campo Grande

    Today, 28 May, Thursday

    Time Temperature Precipitation Wind Pressure Humidity
    00:00 +13°C° 0 mm 3 mps 711 mmHg 67%
    01:00 +13°C° 0 mm 3 mps 711 mmHg 68%
    02:00 +12°C° 0 mm 3 mps 711 mmHg 69%
    03:00 +12°C° 0 mm 3 mps 711 mmHg 71%
    04:00 +12°C° 0 mm 3 mps 711 mmHg 72%
    05:00 +11°C° 0 mm 3 mps 711 mmHg 74%
    06:00 +13°C° 0 mm 4 mps 712 mmHg 70%
    07:00 +14°C° 0 mm 4 mps 712 mmHg 66%
    08:00 +17°C° 0 mm 4 mps 713 mmHg 62%
    09:00 +19°C° 0 mm 4 mps 713 mmHg 57%
    10:00 +21°C° 0 mm 4 mps 713 mmHg 52%
    11:00 +23°C° 0 mm 4 mps 713 mmHg 48%
    12:00 +23°C° 0 mm 4 mps 713 mmHg 45%
    13:00 +25°C° 0 mm 3 mps 712 mmHg 43%
    14:00 +26°C° 0 mm 3 mps 712 mmHg 41%
    15:00 +24°C° 0 mm 2 mps 711 mmHg 47%
    16:00 +21°C° 0 mm 2 mps 711 mmHg 52%
    17:00 +19°C° 0 mm 2 mps 711 mmHg 58%
    18:00 +18°C° 0 mm 2 mps 711 mmHg 60%
    19:00 +17°C° 0 mm 2 mps 711 mmHg 62%
    20:00 +16°C° 0 mm 3 mps 711 mmHg 64%
    21:00 +16°C° 0 mm 3 mps 711 mmHg 66%
    22:00 +16°C° 0 mm 3 mps 712 mmHg 68%
    23:00 +14°C° 0 mm 3 mps 712 mmHg 71%

    Tomorrow, 29 May, Friday

    Time Temperature Precipitation Wind Pressure Humidity
    00:00 +14°C° 0 mm 4 mps 712 mmHg 72%
    01:00 +14°C° 0 mm 4 mps 711 mmHg 73%
    02:00 +13°C° 0 mm 4 mps 711 mmHg 75%
    03:00 +13°C° 0 mm 4 mps 711 mmHg 76%
    04:00 +13°C° 0 mm 4 mps 711 mmHg 76%
    05:00 +13°C° 0 mm 4 mps 711 mmHg 77%
    06:00 +14°C° 0 mm 4 mps 712 mmHg 74%
    07:00 +15°C° 0 mm 4 mps 712 mmHg 70%
    08:00 +18°C° 0 mm 4 mps 713 mmHg 66%
    09:00 +20°C° 0 mm 3 mps 713 mmHg 60%
    10:00 +22°C° 0 mm 3 mps 713 mmHg 54%
    11:00 +25°C° 0 mm 3 mps 713 mmHg 48%
    12:00 +26°C° 0 mm 2 mps 712 mmHg 45%
    13:00 +27°C° 0 mm 2 mps 712 mmHg 41%
    14:00 +28°C° 0 mm 2 mps 712 mmHg 37%
    15:00 +26°C° 0 mm 1 mps 711 mmHg 44%
    16:00 +24°C° 0 mm 1 mps 711 mmHg 51%
    17:00 +22°C° 0 mm 1 mps 711 mmHg 57%
    18:00 +21°C° 0 mm 1 mps 711 mmHg 59%
    19:00 +19°C° 0 mm 2 mps 711 mmHg 60%
    20:00 +18°C° 0 mm 2 mps 711 mmHg 61%
    21:00 +18°C° 0 mm 3 mps 711 mmHg 63%
    22:00 +18°C° 0 mm 3 mps 711 mmHg 65%
    23:00 +17°C° 0 mm 3 mps 711 mmHg 67%

    Day after tomorrow, 30 May, Saturday

    Time Temperature Precipitation Wind Pressure Humidity
    00:00 +17°C° 0 mm 3 mps 711 mmHg 70%
    01:00 +16°C° 0 mm 3 mps 710 mmHg 73%
    02:00 +16°C° 0 mm 3 mps 710 mmHg 76%
    03:00 +16°C° 0 mm 3 mps 710 mmHg 78%
    04:00 +16°C° 0 mm 3 mps 710 mmHg 80%
    05:00 +16°C° 0 mm 3 mps 711 mmHg 82%
    06:00 +17°C° 0 mm 3 mps 711 mmHg 77%
    07:00 +18°C° 0 mm 3 mps 712 mmHg 73%
    08:00 +20°C° 0 mm 3 mps 713 mmHg 68%
    09:00 +23°C° 0 mm 2 mps 713 mmHg 59%
    10:00 +26°C° 0 mm 2 mps 713 mmHg 50%
    11:00 +28°C° 0 mm 2 mps 713 mmHg 41%
    12:00 +29°C° 0 mm 2 mps 712 mmHg 41%
    13:00 +29°C° 0 mm 1 mps 712 mmHg 41%
    14:00 +30°C° 0 mm 1 mps 711 mmHg 41%
    15:00 +28°C° 0 mm 1 mps 710 mmHg 48%
    16:00 +26°C° 0 mm 1 mps 710 mmHg 54%
    17:00 +22°C° 0 mm 0 mps 710 mmHg 60%
    18:00 +24°C° 0 mm 1 mps 710 mmHg 62%
    19:00 +23°C° 0 mm 2 mps 710 mmHg 64%
    20:00 +21°C° 0 mm 3 mps 710 mmHg 67%
    21:00 +21°C° 0 mm 3 mps 710 mmHg 66%
    22:00 +20°C° 0 mm 4 mps 710 mmHg 66%
    23:00 +20°C° 0 mm 4 mps 710 mmHg 66%

    31 May, Sunday

    Time Temperature Precipitation Wind Pressure Humidity
    00:00 +19°C° 0 mm 4 mps 710 mmHg 67%
    01:00 +19°C° 0 mm 4 mps 710 mmHg 68%
    02:00 +18°C° 0 mm 3 mps 710 mmHg 70%
    03:00 +18°C° 0 mm 3 mps 710 mmHg 70%
    04:00 +18°C° 0 mm 3 mps 710 mmHg 70%
    05:00 +18°C° 0 mm 3 mps 710 mmHg 70%
    06:00 +20°C° 0 mm 3 mps 711 mmHg 67%
    07:00 +21°C° 0 mm 3 mps 712 mmHg 64%
    08:00 +22°C° 0 mm 4 mps 712 mmHg 61%
    09:00 +25°C° 0 mm 3 mps 712 mmHg 56%
    10:00 +27°C° 0 mm 3 mps 712 mmHg 51%
    11:00 +29°C° 0 mm 3 mps 713 mmHg 46%
    12:00 +29°C° 0 mm 3 mps 712 mmHg 45%
    13:00 +30°C° 0 mm 3 mps 711 mmHg 44%
    14:00 +30°C° 0 mm 3 mps 711 mmHg 43%
    15:00 +29°C° 0 mm 2 mps 710 mmHg 48%
    16:00 +27°C° 0 mm 2 mps 710 mmHg 54%
    17:00 +26°C° 0 mm 2 mps 710 mmHg 59%
    18:00 +25°C° 0 mm 2 mps 710 mmHg 61%
    19:00 +24°C° 0 mm 2 mps 710 mmHg 62%
    20:00 +23°C° 0 mm 2 mps 710 mmHg 63%
    21:00 +23°C° 0 mm 2 mps 710 mmHg 64%
    22:00 +21°C° 0 mm 2 mps 710 mmHg 65%
    23:00 +21°C° 0 mm 2 mps 710 mmHg 66%

    1 June, Monday

    Time Temperature Precipitation Wind Pressure Humidity
    00:00 +21°C° 0 mm 3 mps 710 mmHg 66%
    01:00 +21°C° 0 mm 3 mps 710 mmHg 66%
    02:00 +21°C° 0 mm 3 mps 710 mmHg 67%
    03:00 +21°C° 0 mm 3 mps 710 mmHg 67%
    04:00 +21°C° 0 mm 3 mps 710 mmHg 67%
    05:00 +21°C° 0 mm 3 mps 710 mmHg 67%
    06:00 +21°C° 0 mm 3 mps 710 mmHg 65%
    07:00 +22°C° 0 mm 3 mps 711 mmHg 63%
    08:00 +24°C° 0 mm 3 mps 711 mmHg 62%
    09:00 +25°C° 0 mm 3 mps 711 mmHg 60%
    10:00 +26°C° 0 mm 4 mps 711 mmHg 59%
    11:00 +26°C° 0 mm 4 mps 712 mmHg 57%
    12:00 +25°C° 0.1 mm 3 mps 711 mmHg 62%
    13:00 +24°C° 0.1 mm 3 mps 710 mmHg 67%
    14:00 +23°C° 0.1 mm 2 mps 710 mmHg 71%
    15:00 +23°C° 0.2 mm 2 mps 710 mmHg 74%
    16:00 +21°C° 0.2 mm 2 mps 710 mmHg 77%
    17:00 +22°C° 0.2 mm 1 mps 710 mmHg 80%
    18:00 +21°C° 0.2 mm 2 mps 710 mmHg 84%
    19:00 +20°C° 0.2 mm 2 mps 710 mmHg 88%
    20:00 +20°C° 0.2 mm 2 mps 710 mmHg 93%
    21:00 +20°C° 0.2 mm 2 mps 711 mmHg 94%
    22:00 +20°C° 0.2 mm 2 mps 711 mmHg 94%
    23:00 +20°C° 0.2 mm 2 mps 711 mmHg 95%

    2 June, Tuesday

    Time Temperature Precipitation Wind Pressure Humidity
    00:00 +19°C° 0.9 mm 3 mps 711 mmHg 95%
    01:00 +19°C° 0.9 mm 3 mps 711 mmHg 95%
    02:00 +18°C° 0.9 mm 3 mps 710 mmHg 96%
    03:00 +18°C° 1.2 mm 3 mps 711 mmHg 95%
    04:00 +17°C° 1.2 mm 3 mps 711 mmHg 95%
    05:00 +17°C° 1.2 mm 3 mps 711 mmHg 95%
    06:00 +17°C° 0.2 mm 3 mps 711 mmHg 94%
    07:00 +17°C° 0.2 mm 3 mps 712 mmHg 93%
    08:00 +17°C° 0.2 mm 3 mps 712 mmHg 92%
    09:00 +17°C° 0 mm 3 mps 712 mmHg 90%
    10:00 +18°C° 0 mm 3 mps 712 mmHg 89%
    11:00 +18°C° 0 mm 2 mps 712 mmHg 87%
    12:00 +18°C° 0 mm 2 mps 712 mmHg 86%
    13:00 +19°C° 0 mm 2 mps 711 mmHg 86%
    14:00 +19°C° 0 mm 2 mps 711 mmHg 86%
    15:00 +19°C° 0.2 mm 2 mps 710 mmHg 87%
    16:00 +19°C° 0.2 mm 2 mps 710 mmHg 89%
    17:00 +19°C° 0.2 mm 2 mps 710 mmHg 90%
    18:00 +18°C° 0.1 mm 2 mps 711 mmHg 91%
    19:00 +18°C° 0.1 mm 2 mps 711 mmHg 92%
    20:00 +17°C° 0.1 mm 2 mps 711 mmHg 93%
    21:00 +17°C° 0 mm 2 mps 711 mmHg 93%
    22:00 +17°C° 0 mm 2 mps 711 mmHg 93%
    23:00 +17°C° 0 mm 2 mps 711 mmHg 93%
    Show more